When you browse on this site, cookies collect data to enhance your experience and personalize the content and advertising you see.
Visit our Privacy Policy to learn more. By continuing to use the site, you agree to this use of cookies and data.
  • In Czech Republic
  • List of Countries
  • For 7 days
  • Water Temperature
  • Satellite Maps
  • Weather Map
  • Weather Widgets
  • user-avatar
    Login

    Hourly Weather Sylhet

    Today, 21 March, Thursday

    Time Temperature Precipitation Wind Pressure Humidity
    00:00 +24°C° 0 mm 1 mps 758 mmHg 64%
    01:00 +23°C° 0.1 mm 1 mps 758 mmHg 68%
    02:00 +23°C° 0.1 mm 1 mps 757 mmHg 71%
    03:00 +21°C° 0.1 mm 2 mps 757 mmHg 75%
    04:00 +21°C° 0 mm 2 mps 757 mmHg 77%
    05:00 +20°C° 0 mm 2 mps 757 mmHg 80%
    06:00 +20°C° 0 mm 2 mps 757 mmHg 85%
    07:00 +23°C° 0 mm 2 mps 758 mmHg 78%
    08:00 +26°C° 0 mm 2 mps 758 mmHg 71%
    09:00 +28°C° 0 mm 2 mps 759 mmHg 65%
    10:00 +30°C° 0 mm 2 mps 758 mmHg 54%
    11:00 +34°C° 0 mm 2 mps 758 mmHg 44%
    12:00 +34°C° 0 mm 2 mps 758 mmHg 45%
    13:00 +35°C° 0 mm 2 mps 758 mmHg 39%
    14:00 +35°C° 0 mm 3 mps 757 mmHg 34%
    15:00 +36°C° 0 mm 4 mps 756 mmHg 28%
    16:00 +34°C° 0 mm 3 mps 756 mmHg 34%
    17:00 +31°C° 0 mm 2 mps 756 mmHg 39%
    18:00 +29°C° 0 mm 1 mps 756 mmHg 44%
    19:00 +28°C° 0 mm 1 mps 756 mmHg 47%
    20:00 +27°C° 0 mm 2 mps 757 mmHg 49%
    21:00 +25°C° 0 mm 2 mps 757 mmHg 52%
    22:00 +25°C° 0 mm 2 mps 757 mmHg 54%
    23:00 +24°C° 0 mm 2 mps 757 mmHg 55%

    Tomorrow, 22 March, Friday

    Time Temperature Precipitation Wind Pressure Humidity
    00:00 +24°C° 0 mm 2 mps 758 mmHg 57%
    01:00 +23°C° 0 mm 2 mps 757 mmHg 61%
    02:00 +23°C° 0 mm 2 mps 757 mmHg 65%
    03:00 +23°C° 0 mm 2 mps 757 mmHg 70%
    04:00 +21°C° 0 mm 2 mps 757 mmHg 70%
    05:00 +21°C° 0 mm 2 mps 757 mmHg 71%
    06:00 +20°C° 0 mm 2 mps 757 mmHg 72%
    07:00 +24°C° 0.1 mm 2 mps 758 mmHg 69%
    08:00 +26°C° 0.1 mm 2 mps 758 mmHg 65%
    09:00 +28°C° 0.1 mm 3 mps 759 mmHg 62%
    10:00 +31°C° 0 mm 2 mps 758 mmHg 55%
    11:00 +34°C° 0 mm 2 mps 758 mmHg 49%
    12:00 +36°C° 0 mm 2 mps 757 mmHg 42%
    13:00 +37°C° 0 mm 2 mps 756 mmHg 39%
    14:00 +38°C° 0 mm 2 mps 755 mmHg 35%
    15:00 +38°C° 0 mm 2 mps 754 mmHg 32%
    16:00 +34°C° 7.5 mm 2 mps 754 mmHg 52%
    17:00 +29°C° 7.5 mm 2 mps 754 mmHg 72%
    18:00 +25°C° 7.5 mm 1 mps 754 mmHg 92%
    19:00 +25°C° 0.1 mm 2 mps 755 mmHg 90%
    20:00 +25°C° 0.1 mm 3 mps 756 mmHg 89%
    21:00 +25°C° 0.1 mm 3 mps 756 mmHg 88%
    22:00 +25°C° 0.5 mm 3 mps 756 mmHg 90%
    23:00 +24°C° 0.5 mm 3 mps 756 mmHg 92%

    Day after tomorrow, 23 March, Saturday

    Time Temperature Precipitation Wind Pressure Humidity
    00:00 +24°C° 0.5 mm 2 mps 756 mmHg 94%
    01:00 +23°C° 0.7 mm 2 mps 756 mmHg 94%
    02:00 +23°C° 0.7 mm 2 mps 756 mmHg 95%
    03:00 +23°C° 0.7 mm 2 mps 755 mmHg 96%
    04:00 +21°C° 0.1 mm 2 mps 756 mmHg 96%
    05:00 +21°C° 0.1 mm 2 mps 756 mmHg 96%
    06:00 +21°C° 0.1 mm 2 mps 756 mmHg 96%
    07:00 +23°C° 0 mm 2 mps 757 mmHg 91%
    08:00 +25°C° 0 mm 2 mps 757 mmHg 86%
    09:00 +27°C° 0 mm 2 mps 758 mmHg 81%
    10:00 +29°C° 0 mm 2 mps 757 mmHg 68%
    11:00 +32°C° 0 mm 2 mps 757 mmHg 56%
    12:00 +35°C° 0 mm 2 mps 756 mmHg 43%
    13:00 +36°C° 0 mm 3 mps 756 mmHg 39%
    14:00 +36°C° 0 mm 4 mps 755 mmHg 34%
    15:00 +37°C° 0 mm 5 mps 754 mmHg 29%
    16:00 +35°C° 0 mm 3 mps 754 mmHg 33%
    17:00 +31°C° 0 mm 2 mps 754 mmHg 36%
    18:00 +29°C° 0 mm 1 mps 754 mmHg 39%
    19:00 +28°C° 0 mm 1 mps 754 mmHg 40%
    20:00 +27°C° 0 mm 1 mps 755 mmHg 40%
    21:00 +26°C° 0 mm 1 mps 756 mmHg 41%
    22:00 +25°C° 0 mm 1 mps 756 mmHg 43%
    23:00 +24°C° 0 mm 1 mps 756 mmHg 46%

    24 March, Sunday

    Time Temperature Precipitation Wind Pressure Humidity
    00:00 +23°C° 0 mm 1 mps 756 mmHg 48%
    01:00 +23°C° 0 mm 1 mps 755 mmHg 52%
    02:00 +22°C° 0 mm 1 mps 755 mmHg 55%
    03:00 +21°C° 0 mm 2 mps 755 mmHg 59%
    04:00 +20°C° 0 mm 2 mps 755 mmHg 62%
    05:00 +20°C° 0 mm 2 mps 755 mmHg 66%
    06:00 +19°C° 0 mm 2 mps 756 mmHg 69%
    07:00 +23°C° 0 mm 2 mps 756 mmHg 65%
    08:00 +25°C° 0 mm 2 mps 757 mmHg 61%
    09:00 +28°C° 0 mm 2 mps 757 mmHg 57%
    10:00 +30°C° 0 mm 2 mps 757 mmHg 49%
    11:00 +33°C° 0 mm 1 mps 756 mmHg 41%
    12:00 +35°C° 0 mm 1 mps 756 mmHg 33%
    13:00 +36°C° 0 mm 1 mps 755 mmHg 29%
    14:00 +36°C° 0 mm 1 mps 754 mmHg 25%
    15:00 +37°C° 0 mm 2 mps 754 mmHg 21%
    16:00 +35°C° 0 mm 2 mps 754 mmHg 26%
    17:00 +32°C° 0 mm 2 mps 754 mmHg 30%
    18:00 +30°C° 0 mm 2 mps 754 mmHg 35%
    19:00 +28°C° 0 mm 2 mps 755 mmHg 37%
    20:00 +27°C° 0 mm 1 mps 756 mmHg 38%
    21:00 +26°C° 0 mm 1 mps 756 mmHg 40%
    22:00 +25°C° 0 mm 2 mps 756 mmHg 42%
    23:00 +24°C° 0 mm 2 mps 756 mmHg 44%

    25 March, Monday

    Time Temperature Precipitation Wind Pressure Humidity
    00:00 +23°C° 0 mm 2 mps 757 mmHg 46%
    01:00 +23°C° 0 mm 2 mps 756 mmHg 48%
    02:00 +23°C° 0 mm 2 mps 756 mmHg 49%
    03:00 +21°C° 0 mm 2 mps 755 mmHg 50%
    04:00 +21°C° 0 mm 2 mps 756 mmHg 52%
    05:00 +20°C° 0 mm 2 mps 756 mmHg 54%
    06:00 +20°C° 0 mm 2 mps 756 mmHg 56%
    07:00 +23°C° 0 mm 2 mps 757 mmHg 51%
    08:00 +26°C° 0 mm 2 mps 757 mmHg 46%
    09:00 +28°C° 0 mm 3 mps 758 mmHg 41%
    10:00 +31°C° 0 mm 2 mps 757 mmHg 36%
    11:00 +34°C° 0 mm 2 mps 757 mmHg 30%
    12:00 +36°C° 0 mm 1 mps 757 mmHg 25%
    13:00 +37°C° 0 mm 2 mps 756 mmHg 24%
    14:00 +38°C° 0 mm 2 mps 755 mmHg 22%
    15:00 +38°C° 0 mm 3 mps 754 mmHg 21%
    16:00 +36°C° 0 mm 2 mps 754 mmHg 26%
    17:00 +33°C° 0 mm 1 mps 755 mmHg 30%
    18:00 +30°C° 0 mm 1 mps 755 mmHg 35%
    19:00 +29°C° 0 mm 1 mps 755 mmHg 36%
    20:00 +28°C° 0 mm 2 mps 756 mmHg 38%
    21:00 +26°C° 0 mm 2 mps 757 mmHg 39%
    22:00 +26°C° 0 mm 2 mps 757 mmHg 40%
    23:00 +25°C° 0 mm 2 mps 757 mmHg 41%

    26 March, Tuesday

    Time Temperature Precipitation Wind Pressure Humidity
    00:00 +24°C° 0 mm 2 mps 757 mmHg 42%
    01:00 +24°C° 0 mm 2 mps 756 mmHg 44%
    02:00 +24°C° 0 mm 2 mps 756 mmHg 45%
    03:00 +23°C° 0 mm 2 mps 755 mmHg 46%
    04:00 +23°C° 0 mm 2 mps 756 mmHg 48%
    05:00 +21°C° 0 mm 2 mps 756 mmHg 50%
    06:00 +21°C° 0 mm 2 mps 756 mmHg 52%
    07:00 +24°C° 0 mm 2 mps 757 mmHg 49%
    08:00 +27°C° 0 mm 2 mps 757 mmHg 45%
    09:00 +29°C° 0 mm 2 mps 758 mmHg 41%
    10:00 +32°C° 0 mm 2 mps 757 mmHg 37%
    11:00 +35°C° 0 mm 2 mps 757 mmHg 32%
    12:00 +38°C° 0 mm 2 mps 757 mmHg 27%
    13:00 +38°C° 0 mm 3 mps 756 mmHg 25%
    14:00 +39°C° 0 mm 3 mps 755 mmHg 23%
    15:00 +40°C° 0 mm 4 mps 754 mmHg 21%
    16:00 +37°C° 0 mm 3 mps 754 mmHg 26%
    17:00 +35°C° 0 mm 2 mps 754 mmHg 32%
    18:00 +32°C° 0 mm 2 mps 755 mmHg 37%
    19:00 +30°C° 0 mm 2 mps 755 mmHg 38%
    20:00 +29°C° 0 mm 2 mps 756 mmHg 40%
    21:00 +28°C° 0 mm 2 mps 756 mmHg 42%
    22:00 +27°C° 0 mm 2 mps 757 mmHg 43%
    23:00 +27°C° 0 mm 2 mps 757 mmHg 44%
    Show more